Kuchera_Ratio
0.9 1.5 2.9 4.5 6.3 7.8 9.0 10.5 12.1 12.8 13.6 13.8 14.0 14.2 14.4 14.7 14.9 15.2 15.5 15.7 16.1 16.6 17.1 17.8 18.2 18.1 18.0 17.9 18.5 18.6 18.8 19.0 18.5 18.8 19.0 19.3 19.3 19.0 19.3 19.1 19.6 19.7 19.2 19.8 19.2 19.5 19.8 20.2 20.2 19.9 19.6 20.5 20.3 20.2 20.1 20.0 20.2 20.3 20.3 20.6 21.0 20.6 21.0 22.1 23.4 23.4 21.1 18.4 19.6 19.3 18.2 17.8 19.2 17.8 18.4 17.6 17.8 17.3 16.4 17.2 17.1 17.5 17.5 17.8 17.6
2.8 3.8 5.4 7.1 8.9 10.6 12.1 13.1 13.3 13.3 13.5 13.7 13.9 14.2 14.4 14.6 14.9 15.1 15.4 15.9 16.6 17.2 17.9 18.1 18.1 17.9 18.0 18.3 18.7 18.8 18.9 19.0 19.0 19.1 19.7 19.8 20.0 19.4 19.8 19.9 20.1 20.2 19.8 20.4 20.1 19.8 20.0 20.5 20.5 20.2 19.9 20.7 20.6 20.8 20.5 20.8 20.7 21.0 21.0 21.0 21.4 21.3 20.3 22.3 23.1 23.1 24.2 20.9 20.7 18.7 19.5 18.1 20.9 17.8 19.4 19.2 19.3 18.3 18.8 18.2 18.1 17.7 18.3 18.3 18.5
6.9 8.1 9.9 11.4 12.6 13.1 13.2 13.3 13.4 13.5 13.8 14.0 14.3 14.6 14.8 15.1 15.5 15.8 16.4 17.1 17.9 18.3 18.5 18.4 18.4 18.2 18.6 18.8 19.2 19.6 19.5 19.6 19.4 19.4 19.8 20.0 20.3 20.2 19.8 20.1 20.4 20.7 20.8 20.8 20.6 20.1 20.7 20.6 20.8 20.3 20.2 20.9 20.8 20.8 20.6 21.0 20.7 21.3 21.5 21.0 21.7 21.4 21.1 21.1 22.5 23.9 23.8 23.4 20.8 22.0 21.0 20.2 20.4 20.2 18.8 18.9 19.3 19.4 20.0 19.6 19.3 18.8 18.5 18.3 19.1
10.3 11.8 12.8 13.1 13.3 13.5 13.8 14.0 14.2 14.4 14.7 14.9 15.2 15.5 15.9 16.5 17.2 17.8 18.4 19.0 19.2 18.8 18.5 18.6 19.2 19.0 19.5 19.5 19.7 20.0 20.1 19.9 19.8 19.7 19.8 19.9 20.3 20.3 20.4 20.8 21.0 21.3 21.5 21.6 21.4 21.3 21.4 21.4 21.2 20.8 20.7 21.3 21.2 21.1 20.8 20.8 21.0 21.2 21.3 21.2 21.3 21.6 21.3 21.2 21.4 22.7 23.0 24.0 22.4 22.4 21.5 21.4 20.7 19.1 19.1 19.3 19.8 20.2 20.2 20.2 19.6 20.0 19.4 18.8 18.8
12.8 13.4 13.6 13.8 14.0 14.3 14.5 14.7 15.0 15.3 15.5 15.8 16.3 16.8 17.4 18.1 18.8 19.4 19.8 19.9 19.3 19.3 19.4 18.9 19.6 20.1 20.0 20.3 20.1 20.3 20.4 20.1 20.2 20.0 19.8 20.4 21.3 21.7 21.8 21.9 22.0 22.0 22.0 22.1 21.7 22.0 21.9 22.0 22.0 22.0 22.5 23.0 22.6 22.2 21.5 21.8 21.2 21.2 21.5 21.4 21.5 21.3 21.3 21.3 21.8 21.7 22.9 23.7 23.3 21.7 21.1 21.4 20.7 20.7 19.8 21.1 20.9 20.8 20.6 21.1 20.9 20.7 20.4 19.3 19.5
13.8 14.0 14.2 14.5 14.7 15.0 15.2 15.5 15.8 16.2 16.6 17.0 17.6 18.2 18.8 19.4 20.1 20.2 19.8 20.3 19.9 19.8 19.8 20.0 19.6 20.8 20.1 20.4 20.1 20.3 20.5 20.2 20.0 20.5 21.6 21.8 22.1 22.3 22.3 22.4 22.8 22.4 22.6 22.6 22.5 22.8 23.7 24.0 23.8 23.4 23.6 23.8 23.8 23.0 22.6 22.8 22.0 21.9 21.9 21.6 21.4 21.5 22.0 22.3 22.3 22.9 23.2 23.9 23.6 23.8 22.2 23.0 22.7 21.9 21.0 21.1 22.3 22.8 22.2 21.4 21.7 21.1 21.7 21.8 21.2
14.4 14.6 14.8 15.1 15.4 15.7 16.0 16.3 16.7 17.2 17.7 18.2 18.7 19.3 19.9 20.5 21.0 21.0 20.3 20.3 20.5 20.8 20.6 20.7 20.5 20.7 20.8 20.8 20.8 20.7 20.8 20.3 20.4 22.1 22.6 23.0 23.4 23.7 23.6 23.7 23.7 23.3 23.4 23.5 24.1 24.9 25.0 25.1 25.1 24.7 24.6 24.3 24.3 24.1 23.6 23.3 22.4 22.8 22.3 22.2 21.9 22.0 22.5 23.0 23.3 24.6 25.1 24.7 24.1 24.0 24.3 23.3 22.9 24.3 22.1 21.4 22.2 22.5 23.2 22.8 23.6 21.7 22.3 22.8 23.4
15.0 15.2 15.4 15.7 16.0 16.3 16.7 17.0 17.5 18.1 18.7 19.2 19.8 20.4 21.1 21.6 21.3 21.0 20.6 21.0 20.9 21.1 21.4 21.5 21.3 21.1 21.2 21.2 21.1 21.1 21.4 21.3 21.2 23.3 23.8 24.0 24.6 24.9 24.9 25.0 25.3 24.8 25.2 25.7 26.1 26.4 26.5 26.4 26.4 25.9 25.3 24.9 24.6 24.5 24.0 23.8 22.8 23.6 23.2 23.5 23.7 23.5 23.3 22.8 23.7 25.0 25.3 25.7 25.4 25.6 25.7 25.8 25.4 25.2 24.0 25.1 25.4 25.0 23.2 24.3 25.5 24.9 24.7 25.2 25.7
15.4 15.6 15.9 16.2 16.5 16.9 17.4 17.9 18.5 19.2 19.8 20.4 21.1 21.8 22.4 22.0 21.8 21.5 21.3 21.3 21.1 21.1 21.7 21.7 22.3 22.4 22.1 21.7 22.3 22.4 22.6 22.4 21.5 23.3 24.4 25.8 25.8 26.5 27.1 27.3 27.4 27.3 27.5 27.9 27.9 27.7 27.6 27.4 27.8 27.2 25.5 24.8 24.3 24.1 23.6 22.7 23.7 24.6 24.3 24.6 25.1 24.8 24.5 23.7 23.3 24.0 25.2 24.7 25.1 25.2 26.0 26.3 26.2 26.3 26.4 26.3 26.4 26.4 25.3 24.9 25.9 25.8 26.0 26.3 25.1
15.8 16.1 16.4 16.8 17.3 17.8 18.4 19.0 19.7 20.4 21.2 22.0 22.8 23.2 23.0 22.6 22.5 22.3 22.4 21.9 21.8 21.9 23.0 22.9 23.3 23.2 23.1 23.8 24.2 24.1 24.0 23.2 21.6 20.8 23.5 25.8 28.1 28.7 29.3 28.8 28.9 29.0 29.3 29.8 29.6 28.8 29.0 29.2 28.5 26.5 26.3 26.0 25.6 25.1 24.4 23.8 23.2 23.8 24.8 25.5 25.9 25.8 25.4 25.3 24.7 23.8 23.9 25.3 25.8 25.4 25.8 26.3 26.2 26.2 26.5 26.3 26.3 26.3 26.0 24.9 26.2 25.9 26.4 26.9 26.5
16.3 16.7 17.1 17.6 18.3 18.9 19.7 20.5 21.3 22.1 22.6 23.1 23.8 23.8 23.6 23.4 23.3 23.2 23.3 22.8 23.0 23.2 23.9 24.5 25.4 25.2 25.4 25.8 26.7 26.3 25.5 24.0 22.1 20.9 20.0 24.3 28.3 29.3 30.0 30.3 30.3 30.5 30.3 30.3 30.1 30.0 30.1 30.1 30.1 28.5 28.2 27.6 27.1 26.1 25.7 24.9 24.4 24.3 24.2 24.3 24.3 25.4 26.2 26.1 25.5 24.6 24.9 24.8 24.4 24.8 25.2 25.6 25.0 26.2 26.5 26.5 26.5 26.7 26.2 25.7 26.0 26.3 26.7 27.4 29.7
17.1 17.6 18.2 18.9 19.6 20.5 21.3 21.8 22.2 22.7 23.3 24.1 24.6 24.5 24.6 24.7 24.6 24.3 24.5 24.0 24.1 24.1 24.8 25.8 27.0 27.5 27.9 28.2 28.5 27.9 27.1 24.3 22.9 22.0 20.1 21.5 26.7 29.8 30.5 30.7 30.9 30.9 30.7 30.9 30.8 30.7 30.7 30.6 30.3 29.8 29.9 28.4 28.2 29.1 27.8 26.0 25.3 25.0 24.8 24.9 24.9 24.7 24.2 25.0 25.7 25.9 25.5 25.8 25.6 25.3 25.3 25.6 25.6 26.8 26.8 26.8 26.1 25.8 25.9 26.5 26.5 26.1 26.5 27.6 27.9
18.3 18.9 19.6 20.4 21.2 21.7 22.0 22.3 22.8 23.4 24.3 25.1 25.7 25.7 25.8 25.9 25.6 25.2 25.7 25.0 25.0 25.5 25.6 27.1 28.7 29.3 29.4 29.9 30.0 29.3 28.6 25.4 23.8 23.1 21.4 21.1 22.9 29.2 30.8 31.2 31.4 31.3 31.2 31.5 31.4 31.3 31.3 31.0 30.8 29.9 29.6 27.8 28.5 30.0 29.8 28.8 26.5 25.5 25.3 25.5 25.8 25.7 25.3 24.5 23.7 24.5 24.8 25.6 25.5 25.7 26.0 26.1 26.3 25.9 26.3 24.7 23.1 24.6 25.0 26.7 26.8 26.8 26.6 27.4 27.6
19.5 20.2 20.9 21.6 21.8 22.0 22.4 22.9 23.6 24.6 25.5 26.2 26.8 26.6 26.8 27.1 26.0 25.3 26.3 26.8 26.8 26.9 26.6 28.4 29.5 29.5 29.8 30.0 30.3 30.4 29.9 26.6 25.0 24.0 23.0 21.6 24.0 28.2 31.0 31.4 31.7 31.8 31.8 31.9 31.7 31.8 31.7 31.6 31.4 30.7 29.8 29.9 29.9 29.6 28.6 27.8 27.9 28.2 28.3 27.9 27.7 27.7 26.4 25.7 25.0 24.1 23.8 25.3 25.7 26.1 25.1 25.8 25.6 24.6 23.8 23.1 24.2 25.0 25.6 26.7 25.7 26.2 26.7 27.2 27.2
20.7 21.4 21.7 21.8 22.1 22.5 23.2 24.0 24.9 25.7 26.6 27.2 27.6 27.6 27.8 27.9 27.3 26.6 27.9 28.6 28.6 28.6 28.4 29.7 29.7 29.8 30.0 30.3 30.6 30.6 30.5 27.3 26.0 25.0 24.4 22.3 25.2 29.0 31.3 31.6 31.9 32.0 32.1 31.9 31.8 31.7 31.8 31.4 31.0 30.6 30.4 30.2 29.4 27.4 26.4 25.4 25.4 26.3 28.1 27.8 27.6 27.7 27.6 27.3 27.0 25.3 24.7 24.9 25.2 24.4 23.7 23.5 23.7 23.0 22.7 22.9 24.2 24.0 23.8 24.3 24.0 24.1 25.1 27.4 27.7
21.5 21.7 21.9 22.2 22.7 23.4 24.3 25.2 26.0 26.7 27.4 28.2 28.8 29.1 28.9 29.2 29.2 28.3 29.6 30.1 30.1 29.7 30.2 29.3 30.1 30.3 30.5 30.6 30.7 30.8 30.9 28.0 26.9 25.8 25.2 22.9 26.7 30.8 31.9 31.9 32.1 32.2 32.0 31.8 31.5 31.2 31.3 31.1 30.8 30.5 30.3 30.2 27.9 25.5 24.1 24.4 26.4 26.8 27.5 28.0 27.8 27.9 27.8 25.3 23.4 22.1 21.8 22.3 22.8 22.9 23.0 21.8 20.3 21.2 21.2 22.9 26.9 27.3 26.2 27.1 27.1 27.5 27.9 28.1 28.3
21.7 21.9 22.3 22.8 23.7 24.6 25.4 26.2 26.9 27.5 28.3 29.1 29.6 29.9 30.2 30.5 30.5 29.3 30.7 30.7 30.7 30.6 30.6 30.8 30.8 30.9 31.0 30.9 30.9 31.2 31.3 29.8 27.7 26.6 26.2 23.7 27.7 31.5 32.1 32.2 32.3 32.3 32.0 31.9 31.3 31.2 31.2 30.4 30.1 30.2 29.8 29.5 26.8 24.9 23.8 24.5 27.8 27.8 27.3 27.9 28.3 28.2 27.9 27.7 25.5 23.3 21.8 21.3 21.1 20.7 20.7 20.9 21.0 20.7 20.6 21.1 22.6 24.4 27.6 27.9 28.2 28.5 28.7 31.8 29.3
22.1 22.4 23.1 23.9 24.9 25.7 26.4 27.0 27.7 28.5 29.4 29.9 30.2 30.3 30.6 30.9 31.1 30.3 31.1 31.1 31.2 31.2 31.4 31.5 31.4 31.5 31.5 31.4 31.5 31.8 31.9 30.8 28.6 27.3 26.6 25.8 27.5 31.6 32.5 32.5 32.5 32.4 32.2 31.5 31.3 31.3 31.2 29.1 28.9 29.8 29.2 28.2 26.1 24.9 24.2 25.2 27.7 27.8 27.1 27.3 28.7 28.7 28.5 28.4 28.2 26.4 23.8 23.5 23.7 23.7 23.7 24.2 24.7 24.7 23.7 23.3 23.4 24.3 28.0 29.0 28.7 29.3 29.3 29.6 32.4
22.6 23.2 24.1 25.0 25.8 26.5 27.2 28.0 28.9 29.7 30.3 30.6 30.7 30.7 30.9 31.2 31.5 31.6 31.6 31.5 31.5 31.6 31.8 31.9 31.8 32.0 32.1 32.2 30.8 32.2 32.2 31.8 29.6 28.0 27.0 26.4 27.4 32.0 32.4 32.8 32.8 32.7 32.6 32.5 31.7 31.7 31.5 30.5 29.3 28.8 28.0 27.3 26.2 25.2 24.9 25.6 27.5 27.9 27.4 27.5 28.9 29.4 29.2 28.9 28.9 28.9 28.4 28.0 27.5 27.2 27.1 26.7 27.3 27.7 27.2 25.7 25.4 25.3 26.7 27.7 28.6 29.4 29.7 29.8 29.9
23.4 24.2 25.0 25.8 26.6 27.4 28.4 29.3 30.0 30.6 30.8 31.0 31.1 31.1 31.3 31.5 31.5 31.5 31.6 31.6 31.6 31.7 32.0 32.3 32.4 32.5 32.5 32.6 32.7 32.6 32.6 32.9 31.1 28.7 27.6 27.2 26.9 29.3 33.3 32.3 32.7 32.7 32.8 32.9 33.4 32.8 31.8 31.6 30.5 28.8 27.6 27.2 26.7 25.9 25.6 25.6 27.4 28.3 27.5 27.7 28.0 28.9 29.6 29.2 29.1 29.2 29.2 29.2 29.2 28.8 29.1 29.0 29.0 28.2 28.2 28.1 27.9 27.3 27.1 27.8 27.8 28.5 29.8 29.9 30.0
24.3 25.1 25.8 26.7 27.7 28.7 29.6 30.4 30.8 30.9 31.0 31.3 31.5 31.5 31.6 31.8 31.6 31.6 31.6 31.6 31.6 31.7 31.9 32.2 32.5 32.6 32.9 32.9 33.0 33.1 32.3 32.9 31.5 29.6 28.2 27.6 27.2 28.3 31.3 30.7 31.2 32.0 33.6 33.6 33.8 33.8 32.9 32.1 31.6 29.1 28.0 27.6 27.5 26.8 26.4 26.4 26.7 28.1 27.8 28.1 27.5 26.9 28.3 29.5 29.5 28.4 29.5 29.8 29.9 29.6 29.9 30.0 29.8 30.0 29.9 29.9 29.4 29.3 28.6 28.7 28.7 28.6 29.3 30.2 30.5
25.3 26.1 26.9 27.8 28.8 29.8 30.7 31.0 31.0 31.2 31.3 31.5 31.6 31.7 31.9 31.9 31.8 31.7 31.7 31.8 31.8 31.8 31.8 31.8 32.1 32.6 33.0 33.1 33.2 33.4 32.8 31.4 31.6 30.3 28.8 28.0 27.8 27.8 29.8 30.2 29.4 31.3 33.2 33.9 34.0 33.8 33.1 32.3 31.7 29.5 28.5 28.2 28.2 27.8 27.4 27.4 27.5 28.2 28.0 26.9 26.6 26.9 29.2 30.0 29.9 29.9 30.1 30.3 30.6 30.7 30.9 31.0 30.9 30.8 30.4 30.3 30.3 29.7 30.1 29.4 29.8 29.8 29.1 28.3 28.6
26.2 27.1 28.1 29.1 30.0 30.7 31.4 31.5 31.5 31.4 31.5 31.7 31.8 31.8 31.9 32.0 31.9 31.8 31.8 32.0 31.9 31.7 31.6 31.6 31.8 32.2 32.6 32.8 33.1 33.4 33.4 33.3 31.1 30.6 29.4 28.8 28.5 28.3 28.6 29.3 28.9 30.5 33.2 34.6 34.6 34.4 33.4 32.7 31.3 29.4 29.2 28.9 28.8 28.8 28.7 28.5 28.8 28.7 27.6 27.9 28.0 27.8 29.1 30.5 30.4 30.5 30.7 30.9 31.2 31.4 31.7 31.8 31.9 31.8 31.5 31.3 30.8 30.3 30.3 29.8 30.2 30.6 30.5 29.8 28.6
27.3 28.4 29.5 30.3 30.8 31.3 31.8 32.1 32.0 31.7 31.7 31.8 31.9 31.9 31.8 31.9 32.1 32.0 31.9 32.1 32.0 31.8 31.8 31.9 32.1 32.3 32.4 32.7 33.1 33.4 33.7 33.8 32.7 30.5 30.0 29.4 29.5 28.9 29.0 29.3 29.4 30.8 32.2 34.6 34.4 34.6 34.0 32.5 31.2 30.0 29.9 29.6 29.6 29.9 30.1 29.6 30.0 29.1 28.9 29.1 29.1 29.0 30.4 31.4 31.4 31.3 31.5 31.8 32.1 32.4 32.5 32.5 32.6 32.2 31.4 31.2 30.8 30.7 30.6 30.1 30.2 30.5 30.8 30.6 30.0
28.6 29.7 30.4 30.9 31.3 31.6 31.9 32.2 32.1 32.0 32.1 31.9 32.0 32.3 32.3 32.2 32.2 32.1 32.0 32.1 32.1 32.3 32.5 32.5 32.8 32.8 32.8 33.2 33.6 33.7 33.9 34.0 33.9 31.8 29.8 30.0 30.0 29.8 29.9 29.8 30.3 30.3 32.6 33.7 33.3 33.7 31.8 31.0 30.9 31.0 30.8 30.7 30.8 31.2 31.4 30.9 30.5 30.3 29.9 30.1 30.2 31.5 31.5 32.1 32.5 32.3 32.7 33.2 33.3 33.2 33.0 32.7 32.6 32.3 31.2 31.3 29.8 30.0 30.5 30.4 30.3 30.3 30.4 30.5 30.3
29.9 30.4 30.9 31.4 31.6 31.7 31.7 31.8 31.9 32.2 32.5 32.4 32.5 32.9 33.1 32.8 32.5 32.3 32.3 32.4 32.6 33.1 33.4 33.3 33.2 33.2 33.2 33.6 34.0 34.1 34.1 34.0 33.8 33.0 31.3 30.8 30.9 30.7 30.4 30.6 30.9 31.0 31.4 32.8 32.5 32.6 32.2 31.9 31.8 31.8 31.9 31.7 32.7 33.4 33.6 32.7 31.6 31.4 31.1 31.2 32.6 32.2 32.2 32.5 33.0 33.9 34.4 34.3 33.9 33.5 33.2 32.8 32.3 31.8 31.2 31.3 31.8 31.6 31.4 31.5 31.9 31.8 31.4 31.2 31.0
30.4 30.9 31.5 31.7 31.8 31.8 31.5 31.6 31.8 32.2 32.7 32.9 32.9 33.0 33.1 33.2 32.9 32.7 32.7 32.8 33.0 33.6 34.1 34.0 33.8 33.7 33.6 33.8 34.1 34.3 34.3 34.2 33.7 32.7 32.2 32.3 32.9 32.1 32.1 32.2 31.7 32.0 33.4 34.4 34.2 35.3 34.1 33.5 33.4 32.8 32.8 32.3 32.4 32.5 33.1 32.8 33.6 34.0 34.1 33.5 33.3 32.8 32.2 32.2 32.9 33.8 33.9 34.6 34.0 33.4 32.9 32.5 32.3 31.3 31.8 31.9 32.2 31.7 31.0 31.4 32.5 32.8 32.3 32.3 32.4
30.8 31.5 31.8 31.8 31.9 31.9 31.8 31.8 31.9 32.2 32.8 33.3 33.5 33.3 33.1 33.2 33.6 33.7 33.8 33.9 34.0 34.2 34.5 34.7 34.7 34.8 34.7 34.5 34.2 34.2 34.4 34.6 33.5 32.7 32.4 32.3 32.7 33.0 33.3 33.4 34.2 34.5 34.5 34.8 36.0 35.4 35.8 34.7 34.7 35.7 35.3 35.1 35.1 35.3 35.5 35.4 34.9 34.9 35.3 34.6 34.4 33.3 32.2 31.4 31.7 33.3 33.8 34.2 33.8 33.5 33.2 33.0 33.2 33.1 32.4 32.5 32.5 32.1 31.3 31.8 32.6 33.1 32.7 33.2 33.2
31.4 31.9 31.8 31.8 32.0 32.0 32.0 32.2 32.3 32.3 32.5 33.1 33.6 34.1 34.3 34.3 34.3 34.4 32.7 31.6 33.6 35.0 35.2 34.8 34.0 35.5 35.8 35.5 35.1 34.8 35.0 34.8 33.2 30.4 30.9 30.6 31.7 32.9 33.5 33.5 33.6 34.5 32.9 32.6 35.0 36.4 35.8 35.6 35.5 35.4 35.6 35.7 35.8 36.0 36.3 36.7 36.3 36.0 36.1 35.3 35.6 35.2 34.9 34.9 35.0 34.9 34.5 34.5 34.5 34.6 34.6 34.4 34.2 33.6 33.2 33.2 32.9 32.7 31.9 32.1 32.2 33.2 33.0 33.2 33.1
31.8 31.8 31.8 32.0 32.1 32.3 32.4 32.5 32.5 32.5 32.5 32.6 33.3 33.4 33.3 32.1 32.7 34.7 34.6 30.8 29.6 29.5 30.2 33.3 32.5 34.3 35.8 35.6 36.0 34.1 34.9 33.2 30.5 30.5 30.6 30.9 31.0 31.1 31.3 31.3 31.5 32.6 32.6 33.0 34.8 35.9 35.5 35.7 35.9 36.2 36.4 36.6 36.7 37.0 37.1 37.2 37.3 37.3 37.0 35.2 35.7 35.8 35.4 35.6 35.7 35.8 34.8 35.2 35.5 35.6 35.5 35.3 35.2 34.8 34.3 34.0 33.5 33.0 32.4 31.9 33.4 33.1 33.1 32.9 32.8
31.8 31.9 32.2 32.5 32.6 32.8 32.9 32.8 32.7 32.8 32.9 33.0 33.2 33.7 34.1 34.1 32.2 31.2 31.3 31.0 30.4 30.2 30.4 30.4 30.2 30.2 31.4 35.6 32.3 30.6 30.7 30.8 30.8 30.9 31.0 31.3 31.5 31.6 31.8 31.8 32.0 32.4 32.9 35.1 36.2 35.7 35.8 36.2 36.4 36.8 37.2 37.5 37.7 38.0 37.8 37.9 37.7 37.6 37.6 37.3 36.9 36.2 35.8 36.3 35.9 35.7 36.0 36.0 36.0 35.8 35.5 35.4 35.1 34.8 34.5 34.2 34.0 33.8 33.6 33.4 33.2 32.9 32.9 32.9 32.7
32.2 32.4 32.7 33.0 33.1 33.3 33.2 33.0 32.9 33.0 33.0 33.4 33.7 33.5 33.7 34.2 34.8 32.9 31.8 31.8 30.9 30.8 31.0 31.1 30.9 30.6 30.7 31.0 32.2 35.2 31.7 31.2 31.3 31.4 31.4 31.7 32.3 32.3 32.3 32.3 32.5 32.8 33.6 34.4 35.9 35.9 36.3 36.7 36.9 37.2 37.5 37.8 37.6 37.7 37.7 37.7 37.6 37.5 37.4 37.5 37.5 36.9 36.9 37.0 35.8 36.8 36.4 36.1 35.8 35.5 35.3 35.2 34.9 34.8 34.5 34.2 33.8 33.5 33.3 33.1 32.9 32.6 32.5 32.4 32.3
32.7 32.9 33.1 33.3 33.4 33.5 33.3 33.3 33.4 33.6 33.5 33.8 34.1 34.2 33.9 33.8 33.9 34.6 35.1 32.5 31.8 31.8 31.8 31.8 31.8 31.3 31.1 31.2 30.9 31.5 31.8 31.7 31.7 31.8 32.0 32.3 32.8 33.1 32.9 33.0 33.0 33.4 34.3 35.7 35.7 36.1 36.6 36.9 37.1 37.3 37.6 37.6 37.5 37.5 37.5 37.4 37.4 37.3 37.3 37.4 37.3 37.3 37.2 37.1 36.7 36.4 36.1 35.9 35.7 35.4 35.1 34.9 34.6 34.5 34.3 34.0 33.8 33.5 33.3 33.1 32.8 32.4 32.2 31.9 31.8
32.6 33.1 33.5 33.8 33.8 33.8 33.8 33.8 33.9 34.1 34.2 34.3 34.5 34.7 34.7 34.6 34.4 34.4 34.4 34.5 34.9 34.1 32.8 32.7 32.8 32.1 31.7 31.7 31.7 31.8 31.8 32.0 32.2 32.4 32.5 32.8 33.3 33.7 33.9 34.6 33.7 33.9 35.3 35.6 35.8 36.2 36.5 36.7 36.9 37.1 37.3 37.5 37.5 37.5 37.4 37.3 37.3 37.3 37.2 37.2 37.1 37.0 36.7 36.4 36.1 35.8 35.7 35.6 35.3 35.1 34.8 34.7 34.5 34.3 34.0 33.8 33.6 33.4 33.3 33.1 32.8 32.5 32.2 31.9 31.6
32.6 33.0 33.2 33.5 33.8 34.2 34.3 34.5 34.4 34.3 34.4 34.7 34.8 34.9 34.9 35.0 35.0 34.8 34.6 34.4 34.5 34.7 35.0 35.3 34.5 32.9 33.0 33.0 32.5 32.4 32.5 32.6 32.7 32.9 33.1 33.3 34.0 34.6 34.8 34.9 34.8 35.2 35.5 35.7 35.9 36.2 36.3 36.5 36.7 36.8 37.0 37.1 37.1 37.1 37.2 37.2 37.0 37.0 36.9 36.7 36.6 36.2 35.8 35.7 35.6 35.5 35.4 35.3 35.0 34.9 34.7 34.4 34.3 34.2 34.0 33.8 33.6 33.3 33.1 33.0 33.0 32.8 32.5 32.1 31.7
32.4 32.6 32.8 33.1 33.4 33.7 34.0 34.2 34.4 34.7 34.7 34.9 35.1 35.2 35.2 35.2 35.1 35.0 35.0 35.0 34.9 34.8 34.9 35.2 35.2 34.7 33.0 33.3 32.9 33.1 33.1 33.1 33.2 33.4 33.7 33.9 34.6 35.1 34.7 34.5 34.8 35.2 35.4 35.6 35.9 36.1 36.2 36.3 36.4 36.5 36.6 36.7 36.7 36.8 36.8 36.8 36.8 36.8 36.6 36.4 36.2 35.9 35.6 35.5 35.5 35.3 35.2 35.0 34.8 34.7 34.5 34.3 34.1 34.0 33.8 33.7 33.7 33.6 33.4 33.2 33.0 32.8 32.5 32.0 31.6
31.8 32.0 32.2 32.6 33.1 33.4 33.7 33.9 34.1 34.5 35.0 35.1 35.1 35.1 35.1 35.0 34.9 35.0 34.9 34.8 34.8 34.8 34.7 34.5 34.5 34.6 34.7 34.8 34.1 33.9 33.8 33.8 33.8 34.0 34.4 34.8 35.0 34.9 35.0 35.1 35.3 35.4 35.4 35.5 35.7 35.8 35.9 36.0 36.1 36.1 36.2 36.2 36.2 36.3 36.3 36.3 36.2 36.2 36.1 36.1 36.0 35.8 35.8 35.8 35.5 35.2 35.0 34.8 34.5 34.4 34.3 34.3 34.2 34.0 33.8 33.5 33.4 33.3 33.3 33.0 32.6 32.3 32.2 31.8 31.3
31.1 31.4 31.8 32.3 32.8 33.1 33.4 33.7 34.0 34.4 34.9 35.0 34.9 34.8 34.7 34.7 34.7 34.8 34.9 34.9 34.9 34.8 34.5 34.3 34.2 34.0 34.0 34.2 34.4 34.6 34.8 34.3 34.0 34.3 34.6 34.5 34.5 34.7 35.0 35.3 35.4 35.4 35.5 35.5 35.5 35.6 35.6 35.7 35.7 35.8 35.8 35.8 35.8 35.8 35.8 35.7 35.7 35.6 35.6 35.6 35.6 35.5 35.3 35.3 35.1 34.9 34.6 34.4 34.3 34.2 34.1 34.1 34.0 33.9 33.8 33.5 33.2 33.0 32.9 32.8 32.3 31.8 31.5 31.3 31.1
30.9 31.2 31.6 32.0 32.3 32.7 33.1 33.5 34.0 34.5 34.8 34.7 34.5 34.3 34.4 34.5 34.4 34.5 34.8 35.0 34.9 34.7 34.4 34.3 34.3 34.2 34.1 34.2 34.1 34.2 34.3 34.2 33.9 33.9 34.1 34.3 34.5 34.7 34.9 35.0 35.2 35.3 35.3 35.3 35.2 35.2 35.2 35.2 35.3 35.4 35.4 35.4 35.4 35.4 35.3 35.3 35.3 35.2 35.1 35.1 35.0 34.9 34.7 34.6 34.5 34.4 34.3 34.2 34.1 34.0 33.8 33.8 33.8 33.8 33.7 33.5 33.2 32.9 32.7 32.6 32.3 31.9 31.4 31.0 30.8
31.0 31.3 31.5 31.7 32.0 32.5 33.0 33.5 34.0 34.5 34.4 34.3 34.3 34.3 34.3 34.3 34.3 34.5 34.8 34.9 34.9 34.8 34.5 34.3 34.3 34.3 34.4 34.3 34.1 34.1 34.2 34.2 34.1 34.3 34.4 34.5 34.6 34.8 34.8 34.7 34.8 34.9 35.0 34.9 34.8 34.8 34.8 34.8 34.9 34.9 34.9 34.9 34.9 34.8 34.8 34.8 34.8 34.8 34.7 34.6 34.5 34.4 34.3 34.2 34.2 34.2 34.1 34.0 33.9 33.8 33.7 33.6 33.4 33.3 33.3 33.2 33.1 32.9 32.6 32.4 32.2 32.0 31.6 31.1 30.6
30.9 31.1 31.3 31.7 32.1 32.6 33.1 33.6 34.1 34.5 34.3 34.2 34.2 34.2 34.3 34.3 34.4 34.6 34.7 34.7 34.7 34.8 34.7 34.6 34.5 34.5 34.5 34.5 34.5 34.5 34.4 34.4 34.5 34.6 34.6 34.6 34.8 34.8 34.8 34.7 34.7 34.7 34.7 34.6 34.6 34.5 34.5 34.4 34.4 34.4 34.4 34.4 34.3 34.3 34.3 34.3 34.3 34.3 34.3 34.1 34.0 34.0 33.9 33.8 33.8 33.8 33.8 33.8 33.7 33.6 33.5 33.4 33.2 33.1 32.9 32.8 32.7 32.6 32.4 32.1 31.8 31.5 31.2 30.8 30.4
30.7 31.0 31.3 31.8 32.3 32.8 33.3 33.7 34.0 34.3 34.3 34.3 34.2 34.1 34.2 34.4 34.5 34.5 34.5 34.4 34.4 34.4 34.5 34.5 34.5 34.5 34.5 34.5 34.6 34.5 34.5 34.5 34.5 34.6 34.7 34.7 34.7 34.7 34.7 34.8 34.7 34.6 34.5 34.4 34.4 34.4 34.4 34.3 34.3 34.2 34.0 33.9 33.9 33.8 33.8 33.8 33.8 33.8 33.8 33.8 33.7 33.6 33.5 33.5 33.4 33.3 33.3 33.4 33.5 33.5 33.3 33.2 33.1 33.0 32.8 32.5 32.3 32.1 31.7 31.3 31.1 30.8 30.7 30.6 30.3
30.5 30.9 31.4 31.8 32.3 32.8 33.2 33.5 33.6 33.8 33.9 34.0 34.0 34.1 34.3 34.3 34.4 34.4 34.4 34.3 34.2 34.1 34.0 34.1 34.2 34.2 34.3 34.3 34.3 34.3 34.4 34.4 34.4 34.4 34.4 34.5 34.5 34.4 34.5 34.5 34.5 34.6 34.5 34.4 34.3 34.3 34.3 34.3 34.3 34.2 34.0 33.9 33.9 33.8 33.7 33.6 33.5 33.4 33.4 33.5 33.5 33.4 33.3 33.3 33.1 32.8 32.7 32.8 33.0 33.1 33.1 32.9 32.7 32.6 32.3 32.1 31.8 31.6 31.2 30.8 30.6 30.6 30.5 30.4 30.1
30.3 30.7 31.1 31.6 32.0 32.3 32.7 32.9 33.1 33.2 33.4 33.7 34.0 34.1 34.1 34.2 34.2 34.3 34.1 34.0 33.9 33.9 33.8 33.7 33.7 33.8 33.9 34.0 34.0 34.1 34.1 34.1 34.1 34.2 34.1 34.1 34.1 34.1 34.0 34.0 34.1 34.1 34.1 34.0 33.9 33.9 33.8 33.8 33.9 34.0 34.0 34.0 33.9 33.8 33.7 33.7 33.5 33.4 33.3 33.3 33.3 33.3 33.2 33.1 33.0 32.8 32.5 32.4 32.5 32.6 32.6 32.4 32.1 31.9 31.8 31.6 31.4 31.2 30.9 30.8 30.7 30.5 30.3 30.1 29.8
30.0 30.4 30.8 31.3 31.6 31.9 32.2 32.4 32.7 32.9 33.2 33.5 33.7 34.0 34.0 34.0 33.9 33.8 33.7 33.7 33.7 33.7 33.7 33.6 33.5 33.5 33.6 33.7 33.7 33.7 33.7 33.8 33.8 33.9 33.8 33.8 33.8 33.7 33.7 33.7 33.6 33.6 33.6 33.6 33.5 33.5 33.5 33.4 33.4 33.4 33.5 33.6 33.6 33.6 33.6 33.6 33.6 33.5 33.5 33.3 33.2 33.1 33.1 33.1 33.0 32.8 32.5 32.3 32.2 32.0 32.0 31.9 31.7 31.5 31.3 31.2 31.2 31.1 30.9 30.8 30.6 30.3 30.1 29.8 29.5
29.9 30.3 30.7 31.1 31.4 31.7 32.0 32.2 32.4 32.6 32.8 33.0 33.2 33.5 33.7 33.8 33.6 33.5 33.5 33.5 33.5 33.5 33.4 33.3 33.3 33.3 33.4 33.4 33.4 33.4 33.4 33.5 33.5 33.6 33.6 33.5 33.4 33.3 33.4 33.5 33.5 33.4 33.3 33.3 33.2 33.1 33.1 33.0 32.9 32.9 33.0 33.1 33.2 33.3 33.3 33.3 33.3 33.3 33.3 33.1 33.0 33.0 33.0 32.8 32.6 32.5 32.4 32.3 31.9 31.6 31.5 31.5 31.4 31.3 31.2 31.1 31.1 30.9 30.8 30.7 30.5 30.3 30.2 30.0 29.6
29.9 30.3 30.7 31.0 31.2 31.4 31.6 31.7 31.9 32.0 32.2 32.3 32.5 32.7 32.9 33.1 33.3 33.3 33.3 33.2 33.3 33.2 33.0 33.0 33.0 33.1 33.2 33.1 33.1 33.1 33.1 33.2 33.3 33.3 33.3 33.2 33.2 33.1 33.1 33.1 33.1 33.1 33.1 32.9 32.8 32.7 32.7 32.6 32.6 32.7 32.7 32.8 32.8 32.8 32.8 32.8 32.7 32.7 32.6 32.6 32.6 32.6 32.4 32.2 32.2 32.2 32.2 32.1 31.9 31.7 31.4 31.3 31.3 31.2 31.0 30.9 30.7 30.5 30.3 30.2 30.2 30.1 30.1 29.8 29.4
29.9 30.2 30.5 30.7 30.8 30.9 31.0 31.0 31.1 31.3 31.4 31.5 31.7 32.0 32.2 32.4 32.6 32.9 32.9 32.8 32.7 32.5 32.5 32.6 32.7 32.8 32.8 32.8 32.8 32.8 32.8 32.9 33.0 33.0 33.0 33.0 33.0 32.9 32.8 32.8 32.6 32.5 32.5 32.4 32.4 32.3 32.3 32.3 32.3 32.3 32.3 32.3 32.3 32.3 32.2 32.1 32.1 32.0 32.0 32.1 32.1 32.0 31.8 31.8 31.9 31.8 31.7 31.7 31.6 31.6 31.5 31.3 31.2 31.1 30.8 30.6 30.4 30.3 30.2 30.0 29.9 29.8 29.6 29.3 28.9
29.6 29.8 29.9 30.0 30.0 30.1 30.2 30.3 30.4 30.6 30.7 30.9 31.2 31.4 31.6 31.9 32.1 32.3 32.5 32.5 32.3 32.1 32.1 32.2 32.2 32.3 32.4 32.4 32.4 32.5 32.5 32.5 32.6 32.6 32.6 32.6 32.6 32.5 32.5 32.5 32.3 32.1 32.1 32.0 31.9 31.9 31.9 31.9 31.9 31.9 31.9 31.8 31.8 31.7 31.6 31.6 31.6 31.5 31.5 31.5 31.5 31.5 31.3 31.4 31.5 31.4 31.3 31.3 31.3 31.2 31.1 31.0 30.9 30.8 30.7 30.5 30.3 30.2 30.0 29.8 29.7 29.4 29.0 28.6 28.4
28.9 29.0 29.1 29.2 29.3 29.4 29.5 29.6 29.8 29.9 30.1 30.4 30.6 30.8 31.0 31.3 31.5 31.7 31.9 31.9 31.8 31.8 31.8 31.8 31.8 31.9 32.0 31.9 32.0 32.1 32.1 32.1 32.1 32.0 31.9 32.0 32.0 32.0 32.0 32.0 31.9 31.9 31.8 31.7 31.6 31.5 31.5 31.4 31.4 31.4 31.3 31.2 31.2 31.2 31.2 31.2 31.2 31.1 31.1 31.0 30.9 30.9 30.9 31.0 30.9 30.9 30.9 30.8 30.8 30.7 30.6 30.5 30.6 30.5 30.4 30.2 29.9 29.7 29.5 29.3 29.2 28.9 28.5 28.3 28.1
28.2 28.3 28.4 28.6 28.7 28.8 28.9 29.1 29.3 29.4 29.6 29.8 30.1 30.3 30.5 30.8 31.0 31.2 31.3 31.3 31.3 31.4 31.5 31.5 31.6 31.7 31.7 31.7 31.7 31.7 31.6 31.6 31.6 31.6 31.5 31.5 31.5 31.5 31.5 31.5 31.5 31.4 31.4 31.3 31.3 31.2 31.0 30.9 30.9 30.8 30.7 30.6 30.6 30.6 30.7 30.8 30.8 30.8 30.7 30.6 30.6 30.6 30.6 30.6 30.6 30.6 30.5 30.4 30.4 30.3 30.2 30.2 30.1 30.0 29.8 29.6 29.4 29.3 29.1 28.8 28.7 28.5 28.3 28.1 28.0